Wetterdaten: Sonntag, 29.11.2015
Datum Zeit Auen-Temp. Temp gefhlt Luftfeuchte Luftdruck Regen Wind Richtung Richtung Taupunkt Windben
29.11.2015 00:00 -0,8 C -1,6 C 79 % 1022,2 hPa 0,0 mm 7,8 km/h (2 Bft) W-SW 247 -4,0 C 11,9 km/h (2 Bft)
29.11.2015 00:05 -0,7 C -1,5 C 79 % 1022,2 hPa 0,0 mm 7,5 km/h (2 Bft) SW 225 -3,9 C 14,8 km/h (3 Bft)
29.11.2015 00:10 -0,8 C -1,7 C 79 % 1022,2 hPa 0,0 mm 8,8 km/h (2 Bft) S-SW 202 -4,0 C 19,7 km/h (3 Bft)
29.11.2015 00:15 -0,8 C -1,7 C 79 % 1022,3 hPa 0,0 mm 9,1 km/h (2 Bft) SW 225 -4,0 C 9,8 km/h (2 Bft)
29.11.2015 00:20 -0,9 C -1,9 C 78 % 1022,3 hPa 0,0 mm 9,3 km/h (2 Bft) W-NW 292 -4,2 C 10,9 km/h (2 Bft)
29.11.2015 00:25 -0,9 C -1,9 C 78 % 1022,3 hPa 0,0 mm 9,1 km/h (2 Bft) S 180 -4,2 C 6,2 km/h (2 Bft)
29.11.2015 00:30 -1,0 C -1,9 C 78 % 1022,3 hPa 0,0 mm 8,3 km/h (2 Bft) W-SW 247 -4,3 C 8,5 km/h (2 Bft)
29.11.2015 00:35 -1,0 C -1,9 C 78 % 1022,2 hPa 0,0 mm 8,3 km/h (2 Bft) S-SW 202 -4,3 C 10,1 km/h (2 Bft)
29.11.2015 00:40 -0,8 C -1,9 C 77 % 1022,2 hPa 0,0 mm 9,3 km/h (2 Bft) S-SW 202 -4,3 C 11,7 km/h (2 Bft)
29.11.2015 00:45 -0,7 C -1,9 C 77 % 1022,2 hPa 0,0 mm 9,8 km/h (2 Bft) W-SW 247 -4,2 C 7,3 km/h (2 Bft)
29.11.2015 00:50 -0,7 C -1,9 C 77 % 1022,2 hPa 0,0 mm 9,8 km/h (2 Bft) S-SW 202 -4,2 C 14,8 km/h (3 Bft)
29.11.2015 00:55 -0,5 C -1,8 C 77 % 1022,1 hPa 0,0 mm 10,6 km/h (2 Bft) W-SW 247 -4,0 C 17,1 km/h (3 Bft)
29.11.2015 01:00 -0,6 C -1,9 C 76 % 1022,1 hPa 0,0 mm 11,7 km/h (2 Bft) SW 225 -4,3 C 23,0 km/h (4 Bft)
29.11.2015 01:05 -0,7 C -1,9 C 76 % 1022,1 hPa 0,0 mm 10,9 km/h (2 Bft) SW 225 -4,4 C 12,9 km/h (3 Bft)
29.11.2015 01:10 -0,7 C -1,9 C 76 % 1022,1 hPa 0,0 mm 10,1 km/h (2 Bft) SW 225 -4,4 C 10,1 km/h (2 Bft)
29.11.2015 01:15 -0,8 C -1,9 C 76 % 1022,2 hPa 0,0 mm 10,1 km/h (2 Bft) SW 225 -4,5 C 15,5 km/h (3 Bft)
29.11.2015 01:20 -0,6 C -1,9 C 76 % 1022,2 hPa 0,0 mm 10,9 km/h (2 Bft) NO 45 -4,3 C 16,3 km/h (3 Bft)
29.11.2015 01:25 -0,6 C -1,8 C 76 % 1022,2 hPa 0,0 mm 10,9 km/h (2 Bft) SW 225 -4,3 C 14,5 km/h (3 Bft)
29.11.2015 01:30 -0,6 C -1,8 C 76 % 1022,2 hPa 0,0 mm 10,6 km/h (2 Bft) W-SW 247 -4,3 C 14,2 km/h (3 Bft)
29.11.2015 01:35 -0,5 C -1,8 C 75 % 1022,0 hPa 0,0 mm 11,4 km/h (2 Bft) W-NW 292 -4,4 C 15,0 km/h (3 Bft)
29.11.2015 01:40 -0,5 C -1,8 C 75 % 1022,0 hPa 0,0 mm 11,1 km/h (2 Bft) SW 225 -4,4 C 12,2 km/h (2 Bft)
29.11.2015 01:45 -0,4 C -1,7 C 75 % 1022,0 hPa 0,0 mm 11,7 km/h (2 Bft) SW 225 -4,3 C 17,6 km/h (3 Bft)
29.11.2015 01:50 -0,4 C -1,6 C 75 % 1022,0 hPa 0,0 mm 11,1 km/h (2 Bft) W-SW 247 -4,3 C 9,8 km/h (2 Bft)
29.11.2015 01:55 -0,4 C -1,6 C 74 % 1021,8 hPa 0,0 mm 10,9 km/h (2 Bft) S-SW 202 -4,5 C 11,9 km/h (2 Bft)
29.11.2015 02:00 -0,5 C -1,5 C 74 % 1021,8 hPa 0,0 mm 9,6 km/h (2 Bft) S 180 -4,5 C 9,1 km/h (2 Bft)
29.11.2015 02:05 -0,4 C -1,5 C 74 % 1021,8 hPa 0,0 mm 9,8 km/h (2 Bft) S 180 -4,5 C 16,8 km/h (3 Bft)
29.11.2015 02:10 -0,5 C -1,6 C 74 % 1021,8 hPa 0,0 mm 10,1 km/h (2 Bft) S-SW 202 -4,5 C 17,9 km/h (3 Bft)
29.11.2015 02:15 -0,3 C -1,5 C 74 % 1021,7 hPa 0,0 mm 11,7 km/h (2 Bft) SW 225 -4,4 C 16,3 km/h (3 Bft)
29.11.2015 02:20 -0,1 C -1,1 C 74 % 1021,7 hPa 0,0 mm 13,5 km/h (3 Bft) SW 225 -4,2 C 25,1 km/h (4 Bft)
29.11.2015 02:25 -0,1 C -1,5 C 74 % 1021,7 hPa 0,0 mm 13,5 km/h (3 Bft) SW 225 -4,2 C 15,8 km/h (3 Bft)
29.11.2015 02:30 -0,2 C -1,4 C 73 % 1021,7 hPa 0,0 mm 11,1 km/h (2 Bft) W-SW 247 -4,4 C 28,2 km/h (4 Bft)
29.11.2015 02:35 -0,3 C -1,4 C 74 % 1021,8 hPa 0,0 mm 9,8 km/h (2 Bft) W-SW 247 -4,4 C 14,0 km/h (3 Bft)
29.11.2015 02:40 -0,2 C -1,3 C 73 % 1021,8 hPa 0,0 mm 10,6 km/h (2 Bft) SW 225 -4,4 C 18,1 km/h (3 Bft)
29.11.2015 02:45 -0,1 C -1,0 C 73 % 1021,8 hPa 0,0 mm 12,4 km/h (3 Bft) W 270 -4,3 C 14,5 km/h (3 Bft)
29.11.2015 02:50 -0,1 C -1,3 C 73 % 1021,8 hPa 0,0 mm 11,9 km/h (2 Bft) W-SW 247 -4,3 C 7,0 km/h (2 Bft)
29.11.2015 02:55 -0,4 C -1,2 C 73 % 1022,0 hPa 0,0 mm 8,5 km/h (2 Bft) W-SW 247 -4,6 C 5,4 km/h (1 Bft)
29.11.2015 03:00 -0,3 C -1,1 C 73 % 1022,0 hPa 0,0 mm 7,3 km/h (2 Bft) W-SW 247 -4,5 C 9,3 km/h (2 Bft)
29.11.2015 03:05 -0,2 C -1,1 C 73 % 1022,0 hPa 0,0 mm 7,8 km/h (2 Bft) W 270 -4,4 C 7,0 km/h (2 Bft)
29.11.2015 03:10 -0,1 C -0,9 C 72 % 1022,0 hPa 0,0 mm 8,0 km/h (2 Bft) W 270 -4,5 C 7,5 km/h (2 Bft)
29.11.2015 03:15 -0,1 C -0,9 C 72 % 1021,9 hPa 0,0 mm 8,0 km/h (2 Bft) SW 225 -4,5 C 9,8 km/h (2 Bft)
29.11.2015 03:20 -0,1 C -0,8 C 72 % 1021,9 hPa 0,0 mm 7,3 km/h (2 Bft) SW 225 -4,5 C 11,4 km/h (2 Bft)
29.11.2015 03:25 -0,1 C -0,9 C 72 % 1021,9 hPa 0,0 mm 8,0 km/h (2 Bft) S 180 -4,5 C 10,6 km/h (2 Bft)
29.11.2015 03:30 -0,2 C -0,9 C 72 % 1021,9 hPa 0,0 mm 7,3 km/h (2 Bft) W-SW 247 -4,6 C 7,8 km/h (2 Bft)
29.11.2015 03:35 -0,1 C -0,9 C 72 % 1021,3 hPa 0,0 mm 7,8 km/h (2 Bft) W-SW 247 -4,5 C 10,1 km/h (2 Bft)
29.11.2015 03:40 0,0 C -0,8 C 71 % 1021,3 hPa 0,0 mm 8,0 km/h (2 Bft) SW 225 -4,6 C 4,4 km/h (1 Bft)
29.11.2015 03:45 0,0 C -0,7 C 71 % 1021,3 hPa 0,0 mm 7,3 km/h (2 Bft) W-SW 247 -4,6 C 8,0 km/h (2 Bft)
29.11.2015 03:50 0,0 C -0,5 C 71 % 1021,3 hPa 0,0 mm 5,4 km/h (1 Bft) S 180 -4,6 C 0,0 km/h (0 Bft)
29.11.2015 03:55 -0,2 C -0,5 C 71 % 1021,1 hPa 0,0 mm 4,1 km/h (1 Bft) W 270 -4,8 C 3,4 km/h (1 Bft)
29.11.2015 04:00 0,0 C -0,6 C 70 % 1021,1 hPa 0,0 mm 5,4 km/h (1 Bft) SW 225 -4,8 C 14,8 km/h (3 Bft)
29.11.2015 04:05 0,0 C -0,7 C 70 % 1021,1 hPa 0,0 mm 6,7 km/h (2 Bft) S 180 -4,8 C 8,3 km/h (2 Bft)
29.11.2015 04:10 -0,1 C -0,8 C 70 % 1021,1 hPa 0,0 mm 7,3 km/h (2 Bft) S-SW 202 -4,9 C 12,7 km/h (3 Bft)
29.11.2015 04:15 -0,1 C -0,8 C 69 % 1020,7 hPa 0,0 mm 7,5 km/h (2 Bft) SW 225 -5,1 C 5,2 km/h (1 Bft)
29.11.2015 04:20 -0,4 C -1,1 C 69 % 1020,7 hPa 0,0 mm 7,5 km/h (2 Bft) S 180 -5,4 C 8,3 km/h (2 Bft)
29.11.2015 04:25 -0,6 C -1,1 C 69 % 1020,7 hPa 0,0 mm 6,2 km/h (2 Bft) S 180 -5,6 C 6,5 km/h (2 Bft)
29.11.2015 04:30 -0,8 C -1,4 C 69 % 1020,7 hPa 0,0 mm 6,2 km/h (2 Bft) SW 225 -5,8 C 10,1 km/h (2 Bft)
29.11.2015 04:35 -0,8 C -1,4 C 69 % 1020,9 hPa 0,0 mm 6,2 km/h (2 Bft) S 180 -5,8 C 7,5 km/h (2 Bft)
29.11.2015 04:40 -0,8 C -1,5 C 69 % 1020,9 hPa 0,0 mm 6,0 km/h (2 Bft) W 270 -5,8 C 6,0 km/h (2 Bft)
29.11.2015 04:45 -0,7 C -1,4 C 69 % 1020,9 hPa 0,0 mm 6,2 km/h (2 Bft) SW 225 -5,7 C 7,8 km/h (2 Bft)
29.11.2015 04:50 -0,6 C -1,4 C 68 % 1020,9 hPa 0,0 mm 7,0 km/h (2 Bft) S 180 -5,8 C 8,0 km/h (2 Bft)
29.11.2015 04:55 -0,4 C -1,4 C 67 % 1021,0 hPa 0,0 mm 8,0 km/h (2 Bft) W-SW 247 -5,8 C 7,0 km/h (2 Bft)
29.11.2015 05:00 -0,5 C -1,4 C 66 % 1021,0 hPa 0,0 mm 7,8 km/h (2 Bft) S-SW 202 -6,1 C 7,0 km/h (2 Bft)
29.11.2015 05:05 -0,5 C -1,4 C 66 % 1021,0 hPa 0,0 mm 7,8 km/h (2 Bft) W 270 -6,1 C 16,3 km/h (3 Bft)
29.11.2015 05:10 -0,3 C -1,3 C 65 % 1021,0 hPa 0,0 mm 9,3 km/h (2 Bft) S-SW 202 -6,1 C 7,0 km/h (2 Bft)
29.11.2015 05:15 -0,5 C -1,4 C 64 % 1021,1 hPa 0,0 mm 9,3 km/h (2 Bft) S 180 -6,5 C 7,5 km/h (2 Bft)
29.11.2015 05:20 -0,5 C -1,2 C 64 % 1021,1 hPa 0,0 mm 7,3 km/h (2 Bft) SW 225 -6,5 C 11,4 km/h (2 Bft)
29.11.2015 05:25 -0,3 C -1,0 C 64 % 1021,1 hPa 0,0 mm 7,0 km/h (2 Bft) SW 225 -6,3 C 7,0 km/h (2 Bft)
29.11.2015 05:30 -0,3 C -0,8 C 63 % 1021,1 hPa 0,0 mm 6,0 km/h (2 Bft) SW 225 -6,5 C 6,0 km/h (2 Bft)
29.11.2015 05:35 -0,2 C -0,7 C 63 % 1021,3 hPa 0,0 mm 6,2 km/h (2 Bft) SW 225 -6,4 C 11,7 km/h (2 Bft)
29.11.2015 05:37 -0,2 C -0,7 C 63 % 1021,3 hPa 0,0 mm 6,2 km/h (2 Bft) SW 225 -6,4 C 11,7 km/h (2 Bft)
29.11.2015 05:40 0,2 C -0,6 C 62 % 1021,3 hPa 0,0 mm 8,3 km/h (2 Bft) W-SW 247 -6,2 C 11,4 km/h (2 Bft)
29.11.2015 05:45 -0,1 C -0,9 C 61 % 1021,3 hPa 0,0 mm 8,8 km/h (2 Bft) W-SW 247 -6,7 C 7,5 km/h (2 Bft)
29.11.2015 05:50 -0,4 C -1,0 C 61 % 1021,3 hPa 0,0 mm 7,5 km/h (2 Bft) S-SW 202 -7,0 C 11,4 km/h (2 Bft)
29.11.2015 05:55 -0,4 C -1,0 C 61 % 1021,3 hPa 0,0 mm 7,3 km/h (2 Bft) S 180 -7,0 C 7,0 km/h (2 Bft)
29.11.2015 06:00 -0,4 C -1,2 C 61 % 1021,3 hPa 0,0 mm 8,0 km/h (2 Bft) W-SW 247 -7,0 C 11,4 km/h (2 Bft)
29.11.2015 06:05 -0,2 C -1,1 C 61 % 1021,3 hPa 0,0 mm 9,1 km/h (2 Bft) SW 225 -6,8 C 7,8 km/h (2 Bft)
29.11.2015 06:10 -0,4 C -1,4 C 60 % 1021,3 hPa 0,0 mm 10,9 km/h (2 Bft) W-SW 247 -7,2 C 14,0 km/h (3 Bft)
29.11.2015 06:15 -0,2 C -1,2 C 60 % 1021,4 hPa 0,0 mm 10,6 km/h (2 Bft) S-SO 157 -7,0 C 14,0 km/h (3 Bft)
29.11.2015 06:20 -0,1 C -1,2 C 60 % 1021,4 hPa 0,0 mm 11,1 km/h (2 Bft) SW 225 -6,9 C 14,5 km/h (3 Bft)
29.11.2015 06:25 -0,4 C -1,3 C 60 % 1021,4 hPa 0,0 mm 10,6 km/h (2 Bft) SW 225 -7,2 C 10,6 km/h (2 Bft)
29.11.2015 06:30 0,1 C -0,8 C 60 % 1021,4 hPa 0,0 mm 12,4 km/h (3 Bft) SW 225 -6,7 C 14,2 km/h (3 Bft)
29.11.2015 06:35 -0,1 C -1,2 C 60 % 1021,2 hPa 0,0 mm 12,2 km/h (2 Bft) SW 225 -6,9 C 15,5 km/h (3 Bft)
29.11.2015 06:40 -0,4 C -1,1 C 61 % 1021,2 hPa 0,0 mm 8,0 km/h (2 Bft) W-SW 247 -7,0 C 4,7 km/h (1 Bft)
29.11.2015 06:45 -0,5 C -1,1 C 62 % 1021,2 hPa 0,0 mm 7,8 km/h (2 Bft) S-SO 157 -6,9 C 6,5 km/h (2 Bft)
29.11.2015 06:50 -0,2 C -1,0 C 63 % 1021,2 hPa 0,0 mm 8,3 km/h (2 Bft) S 180 -6,4 C 8,0 km/h (2 Bft)
29.11.2015 06:55 0,2 C -0,8 C 63 % 1021,0 hPa 0,0 mm 9,6 km/h (2 Bft) SW 225 -6,0 C 14,5 km/h (3 Bft)
29.11.2015 07:00 0,2 C -0,8 C 63 % 1021,0 hPa 0,0 mm 9,8 km/h (2 Bft) S-SO 157 -6,0 C 12,4 km/h (3 Bft)
29.11.2015 07:05 0,5 C -0,4 C 63 % 1021,0 hPa 0,0 mm 9,3 km/h (2 Bft) W-SW 247 -5,7 C 16,6 km/h (3 Bft)
29.11.2015 07:10 0,6 C -0,4 C 62 % 1021,0 hPa 0,0 mm 10,4 km/h (2 Bft) SW 225 -5,8 C 14,0 km/h (3 Bft)
29.11.2015 07:15 0,5 C -0,4 C 62 % 1021,0 hPa 0,0 mm 9,8 km/h (2 Bft) SW 225 -5,9 C 11,7 km/h (2 Bft)
29.11.2015 07:20 0,6 C -0,3 C 62 % 1021,0 hPa 0,0 mm 10,4 km/h (2 Bft) W-SW 247 -5,8 C 12,4 km/h (3 Bft)
29.11.2015 07:25 0,5 C -0,4 C 62 % 1021,0 hPa 0,0 mm 9,8 km/h (2 Bft) S-SW 202 -5,9 C 12,2 km/h (2 Bft)
29.11.2015 07:30 0,7 C -0,2 C 62 % 1021,0 hPa 0,0 mm 9,3 km/h (2 Bft) S-SW 202 -5,7 C 16,1 km/h (3 Bft)
29.11.2015 07:35 0,9 C 0,0 C 62 % 1021,2 hPa 0,0 mm 10,4 km/h (2 Bft) SW 225 -5,5 C 20,2 km/h (4 Bft)
29.11.2015 07:40 0,9 C -0,2 C 61 % 1021,2 hPa 0,0 mm 12,2 km/h (2 Bft) SW 225 -5,8 C 14,2 km/h (3 Bft)
29.11.2015 07:45 1,0 C 0,0 C 61 % 1021,2 hPa 0,0 mm 11,7 km/h (2 Bft) SW 225 -5,7 C 18,6 km/h (3 Bft)
29.11.2015 07:50 1,1 C 0,1 C 61 % 1021,2 hPa 0,0 mm 12,2 km/h (2 Bft) SO 135 -5,6 C 22,8 km/h (4 Bft)
29.11.2015 07:55 1,3 C 0,2 C 61 % 1021,0 hPa 0,0 mm 12,7 km/h (3 Bft) SW 225 -5,4 C 18,1 km/h (3 Bft)
29.11.2015 08:00 1,6 C 0,8 C 61 % 1021,0 hPa 0,0 mm 12,7 km/h (3 Bft) W-SW 247 -5,1 C 13,2 km/h (3 Bft)
29.11.2015 08:05 1,4 C 0,5 C 61 % 1021,0 hPa 0,0 mm 11,4 km/h (2 Bft) S 180 -5,3 C 6,2 km/h (2 Bft)
29.11.2015 08:10 1,8 C 0,9 C 62 % 1021,0 hPa 0,0 mm 11,7 km/h (2 Bft) S 180 -4,7 C 5,2 km/h (1 Bft)
29.11.2015 08:15 1,7 C 0,9 C 62 % 1020,8 hPa 0,0 mm 11,7 km/h (2 Bft) S-SW 202 -4,8 C 8,5 km/h (2 Bft)
29.11.2015 08:20 1,5 C 1,0 C 63 % 1020,8 hPa 0,0 mm 8,3 km/h (2 Bft) W-SW 247 -4,8 C 5,2 km/h (1 Bft)
29.11.2015 08:25 1,5 C 1,0 C 64 % 1020,8 hPa 0,0 mm 8,0 km/h (2 Bft) SW 225 -4,6 C 8,3 km/h (2 Bft)
29.11.2015 08:30 1,6 C 1,0 C 64 % 1020,8 hPa 0,0 mm 9,8 km/h (2 Bft) SW 225 -4,5 C 15,5 km/h (3 Bft)
29.11.2015 08:35 1,5 C 1,0 C 64 % 1020,8 hPa 0,0 mm 9,1 km/h (2 Bft) S-SW 202 -4,6 C 11,1 km/h (2 Bft)
29.11.2015 08:40 1,8 C 1,2 C 64 % 1020,8 hPa 0,0 mm 9,1 km/h (2 Bft) W-SW 247 -4,3 C 10,6 km/h (2 Bft)
29.11.2015 08:45 1,9 C 1,2 C 64 % 1020,8 hPa 0,0 mm 10,1 km/h (2 Bft) SW 225 -4,2 C 14,8 km/h (3 Bft)
29.11.2015 08:50 2,1 C 1,3 C 64 % 1020,8 hPa 0,0 mm 10,9 km/h (2 Bft) SW 225 -4,0 C 14,8 km/h (3 Bft)
29.11.2015 08:55 2,2 C 1,5 C 64 % 1020,7 hPa 0,0 mm 10,4 km/h (2 Bft) SW 225 -3,9 C 11,9 km/h (2 Bft)
29.11.2015 09:00 2,4 C 1,8 C 64 % 1020,7 hPa 0,0 mm 9,1 km/h (2 Bft) SW 225 -3,7 C 6,5 km/h (2 Bft)
29.11.2015 09:05 2,5 C 2,1 C 64 % 1020,7 hPa 0,0 mm 7,5 km/h (2 Bft) SW 225 -3,6 C 4,7 km/h (1 Bft)
29.11.2015 09:10 2,8 C 2,6 C 64 % 1020,7 hPa 0,0 mm 6,2 km/h (2 Bft) S 180 -3,3 C 5,7 km/h (1 Bft)
29.11.2015 09:15 2,9 C 2,7 C 64 % 1020,6 hPa 0,0 mm 6,7 km/h (2 Bft) W-SW 247 -3,2 C 4,1 km/h (1 Bft)
29.11.2015 09:20 3,0 C 3,0 C 63 % 1020,6 hPa 0,0 mm 6,0 km/h (2 Bft) W 270 -3,3 C 6,5 km/h (2 Bft)
29.11.2015 09:25 3,0 C 3,2 C 63 % 1020,6 hPa 0,0 mm 5,4 km/h (1 Bft) SW 225 -3,3 C 10,4 km/h (2 Bft)
29.11.2015 09:30 3,2 C 3,4 C 63 % 1020,6 hPa 0,0 mm 6,5 km/h (2 Bft) W-SW 247 -3,1 C 8,8 km/h (2 Bft)
29.11.2015 09:35 3,3 C 3,4 C 63 % 1021,0 hPa 0,0 mm 7,0 km/h (2 Bft) SW 225 -3,1 C 14,5 km/h (3 Bft)
29.11.2015 09:40 3,4 C 3,5 C 63 % 1021,0 hPa 0,0 mm 7,5 km/h (2 Bft) NW 315 -3,0 C 8,8 km/h (2 Bft)
29.11.2015 09:45 3,4 C 3,5 C 63 % 1021,0 hPa 0,0 mm 8,0 km/h (2 Bft) W-SW 247 -3,0 C 13,7 km/h (3 Bft)
29.11.2015 09:50 3,4 C 3,6 C 63 % 1021,0 hPa 0,0 mm 7,3 km/h (2 Bft) SW 225 -3,0 C 4,4 km/h (1 Bft)
29.11.2015 09:55 3,4 C 3,7 C 63 % 1021,1 hPa 0,0 mm 7,5 km/h (2 Bft) W-SW 247 -3,0 C 7,3 km/h (2 Bft)
29.11.2015 10:00 3,4 C 3,7 C 63 % 1021,1 hPa 0,0 mm 6,7 km/h (2 Bft) SW 225 -3,0 C 8,5 km/h (2 Bft)
29.11.2015 10:05 3,4 C 3,8 C 64 % 1021,1 hPa 0,0 mm 6,7 km/h (2 Bft) W 270 -2,7 C 11,7 km/h (2 Bft)
29.11.2015 10:10 3,6 C 3,9 C 64 % 1021,1 hPa 0,0 mm 7,0 km/h (2 Bft) W-SW 247 -2,6 C 7,3 km/h (2 Bft)
29.11.2015 10:15 3,6 C 3,9 C 64 % 1021,2 hPa 0,0 mm 7,0 km/h (2 Bft) W-SW 247 -2,6 C 8,8 km/h (2 Bft)
29.11.2015 10:20 3,7 C 4,1 C 64 % 1021,2 hPa 0,0 mm 6,7 km/h (2 Bft) W 270 -2,5 C 4,7 km/h (1 Bft)
29.11.2015 10:25 3,7 C 4,2 C 64 % 1021,2 hPa 0,0 mm 7,0 km/h (2 Bft) W 270 -2,5 C 8,0 km/h (2 Bft)
29.11.2015 10:30 3,9 C 4,4 C 65 % 1021,2 hPa 0,0 mm 7,5 km/h (2 Bft) W-SW 247 -2,1 C 9,3 km/h (2 Bft)
29.11.2015 10:35 3,9 C 4,4 C 65 % 1021,4 hPa 0,0 mm 8,8 km/h (2 Bft) W-SW 247 -2,1 C 19,7 km/h (3 Bft)
29.11.2015 10:40 4,0 C 4,6 C 65 % 1021,4 hPa 0,0 mm 8,0 km/h (2 Bft) W 270 -2,0 C 9,1 km/h (2 Bft)
29.11.2015 10:45 4,0 C 4,7 C 65 % 1021,4 hPa 0,0 mm 7,8 km/h (2 Bft) W 270 -2,0 C 19,9 km/h (4 Bft)
29.11.2015 10:50 4,1 C 4,7 C 66 % 1021,4 hPa 0,0 mm 8,5 km/h (2 Bft) W 270 -1,7 C 10,9 km/h (2 Bft)
29.11.2015 10:55 4,1 C 4,6 C 66 % 1021,5 hPa 0,0 mm 9,3 km/h (2 Bft) W-SW 247 -1,7 C 12,2 km/h (2 Bft)
29.11.2015 11:00 4,1 C 4,7 C 66 % 1021,5 hPa 0,0 mm 9,6 km/h (2 Bft) W 270 -1,7 C 9,3 km/h (2 Bft)
29.11.2015 11:05 4,0 C 4,7 C 67 % 1021,5 hPa 0,0 mm 9,3 km/h (2 Bft) W-NW 292 -1,6 C 10,1 km/h (2 Bft)
29.11.2015 11:10 4,0 C 4,8 C 67 % 1021,5 hPa 0,0 mm 8,3 km/h (2 Bft) W-SW 247 -1,6 C 10,9 km/h (2 Bft)
29.11.2015 11:15 4,0 C 4,9 C 67 % 1021,1 hPa 0,0 mm 8,3 km/h (2 Bft) NW 315 -1,6 C 12,7 km/h (3 Bft)
29.11.2015 11:20 4,0 C 5,3 C 68 % 1021,1 hPa 0,0 mm 6,7 km/h (2 Bft) W-SW 247 -1,4 C 8,8 km/h (2 Bft)
29.11.2015 11:25 4,0 C 5,9 C 68 % 1021,1 hPa 0,0 mm 5,4 km/h (1 Bft) W-SW 247 -1,4 C 11,9 km/h (2 Bft)
29.11.2015 11:30 4,0 C 5,6 C 69 % 1021,1 hPa 0,0 mm 7,0 km/h (2 Bft) SW 225 -1,2 C 12,9 km/h (3 Bft)
29.11.2015 11:35 4,0 C 5,4 C 69 % 1021,2 hPa 0,0 mm 7,5 km/h (2 Bft) W 270 -1,2 C 16,6 km/h (3 Bft)
29.11.2015 11:36 4,1 C 5,5 C 69 % 1021,2 hPa 0,0 mm 7,3 km/h (2 Bft) W-SW 247 -1,1 C 8,5 km/h (2 Bft)
29.11.2015 11:38 4,1 C 5,5 C 69 % 1021,2 hPa 0,0 mm 7,3 km/h (2 Bft) W-SW 247 -1,1 C 8,5 km/h (2 Bft)
29.11.2015 11:40 4,1 C 5,5 C 69 % 1021,2 hPa 0,0 mm 7,3 km/h (2 Bft) W-SW 247 -1,1 C 8,5 km/h (2 Bft)
29.11.2015 11:45 4,1 C 5,4 C 69 % 1021,2 hPa 0,0 mm 7,8 km/h (2 Bft) W-SW 247 -1,1 C 17,9 km/h (3 Bft)
29.11.2015 11:50 4,1 C 5,3 C 69 % 1021,2 hPa 0,0 mm 8,0 km/h (2 Bft) W-SW 247 -1,1 C 10,6 km/h (2 Bft)
29.11.2015 11:55 4,2 C 5,4 C 70 % 1020,7 hPa 0,0 mm 8,0 km/h (2 Bft) W-SW 247 -0,8 C 14,5 km/h (3 Bft)
29.11.2015 12:00 4,4 C 5,5 C 70 % 1020,7 hPa 0,0 mm 8,8 km/h (2 Bft) W 270 -0,6 C 4,9 km/h (1 Bft)
29.11.2015 12:05 4,4 C 5,5 C 70 % 1020,7 hPa 0,0 mm 9,1 km/h (2 Bft) W 270 -0,6 C 11,9 km/h (2 Bft)
29.11.2015 12:10 4,4 C 5,6 C 70 % 1020,7 hPa 0,0 mm 8,5 km/h (2 Bft) W-SW 247 -0,6 C 14,8 km/h (3 Bft)
29.11.2015 12:15 4,4 C 5,6 C 70 % 1020,8 hPa 0,0 mm 8,5 km/h (2 Bft) SW 225 -0,6 C 6,0 km/h (2 Bft)
29.11.2015 12:20 4,4 C 5,3 C 70 % 1020,8 hPa 0,0 mm 8,5 km/h (2 Bft) NO 45 -0,6 C 12,7 km/h (3 Bft)
29.11.2015 12:25 4,3 C 5,2 C 70 % 1020,8 hPa 0,0 mm 9,1 km/h (2 Bft) W-SW 247 -0,7 C 19,2 km/h (3 Bft)
29.11.2015 12:30 4,3 C 4,9 C 71 % 1020,8 hPa 0,0 mm 10,9 km/h (2 Bft) W-SW 247 -0,5 C 14,8 km/h (3 Bft)
29.11.2015 12:35 4,3 C 4,9 C 71 % 1020,8 hPa 0,0 mm 10,4 km/h (2 Bft) W-SW 247 -0,5 C 15,8 km/h (3 Bft)
29.11.2015 12:40 4,4 C 4,9 C 71 % 1020,8 hPa 0,0 mm 11,1 km/h (2 Bft) NW 315 -0,4 C 22,3 km/h (4 Bft)
29.11.2015 12:45 4,4 C 4,9 C 71 % 1020,8 hPa 0,0 mm 10,9 km/h (2 Bft) W-SW 247 -0,4 C 8,5 km/h (2 Bft)
29.11.2015 12:50 4,6 C 4,9 C 72 % 1020,8 hPa 0,0 mm 11,9 km/h (2 Bft) W-SW 247 -0,0 C 32,4 km/h (5 Bft)
29.11.2015 12:55 4,6 C 5,0 C 72 % 1021,0 hPa 0,0 mm 12,7 km/h (3 Bft) W 270 -0,0 C 25,4 km/h (4 Bft)
29.11.2015 13:00 4,6 C 4,7 C 72 % 1021,0 hPa 0,0 mm 12,2 km/h (2 Bft) W-SW 247 -0,0 C 14,0 km/h (3 Bft)
29.11.2015 13:05 4,6 C 4,9 C 72 % 1021,0 hPa 0,0 mm 13,2 km/h (3 Bft) W-SW 247 -0,0 C 17,1 km/h (3 Bft)
29.11.2015 13:10 4,6 C 4,6 C 72 % 1021,0 hPa 0,0 mm 12,2 km/h (2 Bft) W 270 -0,0 C 12,9 km/h (3 Bft)
29.11.2015 13:15 4,6 C 4,7 C 72 % 1020,8 hPa 0,7 mm 10,9 km/h (2 Bft) W-NW 292 -0,0 C 16,1 km/h (3 Bft)
29.11.2015 13:20 4,6 C 4,7 C 73 % 1020,8 hPa 0,0 mm 12,7 km/h (3 Bft) W 270 0,2 C 34,4 km/h (5 Bft)
29.11.2015 13:25 4,6 C 4,6 C 73 % 1020,8 hPa 0,0 mm 14,2 km/h (3 Bft) W-NW 292 0,2 C 26,2 km/h (4 Bft)
29.11.2015 13:30 4,6 C 4,4 C 73 % 1020,8 hPa 0,0 mm 14,0 km/h (3 Bft) NW 315 0,2 C 40,9 km/h (6 Bft)
29.11.2015 13:35 4,6 C 4,3 C 73 % 1021,2 hPa 0,0 mm 12,9 km/h (3 Bft) W 270 0,2 C 8,3 km/h (2 Bft)
29.11.2015 13:40 4,4 C 4,0 C 73 % 1021,2 hPa 0,0 mm 10,1 km/h (2 Bft) W 270 -0,0 C 22,8 km/h (4 Bft)
29.11.2015 13:45 4,4 C 3,9 C 73 % 1021,2 hPa 0,0 mm 10,4 km/h (2 Bft) NW 315 -0,0 C 7,8 km/h (2 Bft)
29.11.2015 13:50 4,4 C 3,6 C 75 % 1021,2 hPa 0,0 mm 12,2 km/h (2 Bft) W-SW 247 0,4 C 11,9 km/h (2 Bft)
29.11.2015 13:55 4,3 C 3,6 C 74 % 1021,2 hPa 0,0 mm 10,6 km/h (2 Bft) W-NW 292 0,1 C 12,2 km/h (2 Bft)
29.11.2015 14:00 4,3 C 3,8 C 74 % 1021,2 hPa 0,0 mm 8,8 km/h (2 Bft) W-SW 247 0,1 C 11,7 km/h (2 Bft)
29.11.2015 14:05 4,3 C 3,9 C 74 % 1021,2 hPa 0,0 mm 9,1 km/h (2 Bft) W-SW 247 0,1 C 17,9 km/h (3 Bft)
29.11.2015 14:10 4,3 C 3,8 C 74 % 1021,2 hPa 0,0 mm 9,6 km/h (2 Bft) W 270 0,1 C 12,9 km/h (3 Bft)
29.11.2015 14:15 4,3 C 3,7 C 74 % 1021,3 hPa 0,0 mm 9,6 km/h (2 Bft) NW 315 0,1 C 6,5 km/h (2 Bft)
29.11.2015 14:20 4,3 C 3,7 C 76 % 1021,3 hPa 0,0 mm 8,8 km/h (2 Bft) W-SW 247 0,5 C 8,5 km/h (2 Bft)
29.11.2015 14:25 4,3 C 3,6 C 77 % 1021,3 hPa 0,0 mm 9,6 km/h (2 Bft) SW 225 0,6 C 18,6 km/h (3 Bft)
29.11.2015 14:30 4,2 C 3,4 C 78 % 1021,3 hPa 0,0 mm 11,1 km/h (2 Bft) W-SW 247 0,7 C 12,9 km/h (3 Bft)
29.11.2015 14:35 4,2 C 3,3 C 78 % 1021,4 hPa 0,7 mm 11,7 km/h (2 Bft) W-SW 247 0,7 C 7,5 km/h (2 Bft)
29.11.2015 14:40 4,2 C 3,4 C 79 % 1021,4 hPa 0,0 mm 10,9 km/h (2 Bft) W-NW 292 0,9 C 7,8 km/h (2 Bft)
29.11.2015 14:45 4,2 C 3,4 C 79 % 1021,4 hPa 0,0 mm 10,4 km/h (2 Bft) W-SW 247 0,9 C 16,8 km/h (3 Bft)
29.11.2015 14:50 4,2 C 3,3 C 79 % 1021,4 hPa 0,0 mm 10,1 km/h (2 Bft) W 270 0,9 C 11,9 km/h (2 Bft)
29.11.2015 14:55 4,2 C 3,3 C 79 % 1021,3 hPa 0,0 mm 10,4 km/h (2 Bft) SW 225 0,9 C 13,2 km/h (3 Bft)
29.11.2015 15:00 4,1 C 3,3 C 79 % 1021,3 hPa 0,0 mm 9,8 km/h (2 Bft) W-SW 247 0,8 C 11,9 km/h (2 Bft)
29.11.2015 15:05 4,1 C 3,4 C 79 % 1021,3 hPa 0,0 mm 9,3 km/h (2 Bft) W 270 0,8 C 7,5 km/h (2 Bft)
29.11.2015 15:10 4,2 C 3,5 C 79 % 1021,3 hPa 0,0 mm 10,1 km/h (2 Bft) N-NW 337 0,9 C 16,3 km/h (3 Bft)
29.11.2015 15:15 4,3 C 3,5 C 78 % 1021,5 hPa 0,0 mm 10,9 km/h (2 Bft) W 270 0,8 C 10,9 km/h (2 Bft)
29.11.2015 15:20 4,4 C 3,8 C 78 % 1021,5 hPa 0,0 mm 12,7 km/h (3 Bft) SW 225 0,9 C 24,3 km/h (4 Bft)
29.11.2015 15:25 4,4 C 3,6 C 77 % 1021,5 hPa 0,0 mm 11,9 km/h (2 Bft) W-NW 292 0,7 C 9,8 km/h (2 Bft)
29.11.2015 15:30 4,3 C 3,6 C 77 % 1021,5 hPa 0,0 mm 10,6 km/h (2 Bft) W-NW 292 0,6 C 11,1 km/h (2 Bft)
29.11.2015 15:35 4,3 C 3,6 C 77 % 1021,6 hPa 0,0 mm 10,1 km/h (2 Bft) SW 225 0,6 C 13,5 km/h (3 Bft)
29.11.2015 15:40 4,3 C 3,7 C 77 % 1021,6 hPa 0,0 mm 9,8 km/h (2 Bft) W-SW 247 0,6 C 11,4 km/h (2 Bft)
29.11.2015 15:45 4,3 C 3,6 C 77 % 1021,6 hPa 0,0 mm 10,1 km/h (2 Bft) W 270 0,6 C 10,9 km/h (2 Bft)
29.11.2015 15:50 4,3 C 3,6 C 77 % 1021,6 hPa 0,0 mm 10,4 km/h (2 Bft) W-SW 247 0,6 C 12,7 km/h (3 Bft)
29.11.2015 15:55 4,5 C 3,7 C 77 % 1021,7 hPa 0,0 mm 10,9 km/h (2 Bft) S-SW 202 0,8 C 9,8 km/h (2 Bft)
29.11.2015 16:00 4,3 C 3,5 C 77 % 1021,7 hPa 0,0 mm 10,9 km/h (2 Bft) S-SW 202 0,6 C 13,7 km/h (3 Bft)
29.11.2015 16:05 4,3 C 3,5 C 77 % 1021,7 hPa 0,0 mm 10,1 km/h (2 Bft) SW 225 0,6 C 9,1 km/h (2 Bft)
29.11.2015 16:10 4,3 C 3,4 C 77 % 1021,7 hPa 0,0 mm 11,7 km/h (2 Bft) W 270 0,6 C 25,6 km/h (4 Bft)
29.11.2015 16:15 4,4 C 3,4 C 78 % 1021,9 hPa 0,0 mm 11,9 km/h (2 Bft) W 270 0,9 C 19,2 km/h (3 Bft)
29.11.2015 16:20 4,1 C 3,3 C 78 % 1021,9 hPa 0,0 mm 11,1 km/h (2 Bft) W-SW 247 0,6 C 13,5 km/h (3 Bft)
29.11.2015 16:25 4,1 C 3,3 C 79 % 1021,9 hPa 0,0 mm 9,8 km/h (2 Bft) W 270 0,8 C 8,5 km/h (2 Bft)
29.11.2015 16:30 4,0 C 3,3 C 79 % 1021,9 hPa 0,0 mm 9,1 km/h (2 Bft) S-SW 202 0,7 C 12,2 km/h (2 Bft)
29.11.2015 16:35 3,9 C 3,2 C 80 % 1022,2 hPa 0,0 mm 8,5 km/h (2 Bft) W-SW 247 0,8 C 8,8 km/h (2 Bft)
29.11.2015 16:40 4,0 C 3,2 C 80 % 1022,2 hPa 0,0 mm 8,8 km/h (2 Bft) W-SW 247 0,9 C 9,8 km/h (2 Bft)
29.11.2015 16:45 4,0 C 3,3 C 80 % 1022,2 hPa 0,0 mm 8,8 km/h (2 Bft) W-SW 247 0,9 C 7,0 km/h (2 Bft)
29.11.2015 16:50 4,4 C 3,5 C 79 % 1022,2 hPa 0,0 mm 10,9 km/h (2 Bft) W-SW 247 1,1 C 13,5 km/h (3 Bft)
29.11.2015 16:55 4,4 C 3,6 C 79 % 1022,5 hPa 0,0 mm 10,6 km/h (2 Bft) SW 225 1,1 C 12,7 km/h (3 Bft)
29.11.2015 17:00 4,6 C 3,7 C 79 % 1022,5 hPa 0,0 mm 11,7 km/h (2 Bft) N-NW 337 1,3 C 20,5 km/h (4 Bft)
29.11.2015 17:05 4,6 C 3,7 C 79 % 1022,5 hPa 0,0 mm 12,2 km/h (2 Bft) SW 225 1,3 C 24,6 km/h (4 Bft)
29.11.2015 17:10 4,5 C 3,8 C 78 % 1022,5 hPa 0,0 mm 10,9 km/h (2 Bft) W 270 1,0 C 19,4 km/h (3 Bft)
29.11.2015 17:15 4,5 C 3,8 C 78 % 1022,3 hPa 0,0 mm 10,9 km/h (2 Bft) W 270 1,0 C 26,7 km/h (4 Bft)
29.11.2015 17:20 4,8 C 4,0 C 78 % 1022,3 hPa 0,0 mm 12,2 km/h (2 Bft) W 270 1,3 C 10,9 km/h (2 Bft)
29.11.2015 17:25 4,8 C 4,3 C 78 % 1022,3 hPa 0,0 mm 13,7 km/h (3 Bft) W-NW 292 1,3 C 21,5 km/h (4 Bft)
29.11.2015 17:30 4,8 C 4,4 C 78 % 1022,3 hPa 0,0 mm 15,0 km/h (3 Bft) W-SW 247 1,3 C 14,2 km/h (3 Bft)
29.11.2015 17:35 4,8 C 4,4 C 78 % 1022,6 hPa 0,0 mm 14,0 km/h (3 Bft) W-SW 247 1,3 C 14,5 km/h (3 Bft)
29.11.2015 17:36 5,0 C 4,3 C 77 % 1022,6 hPa 0,0 mm 12,9 km/h (3 Bft) SW 225 1,3 C 19,4 km/h (3 Bft)
29.11.2015 17:39 5,0 C 4,4 C 77 % 1022,6 hPa 0,0 mm 12,9 km/h (3 Bft) SW 225 1,3 C 19,4 km/h (3 Bft)
29.11.2015 17:40 5,0 C 4,4 C 77 % 1022,6 hPa 0,0 mm 12,9 km/h (3 Bft) SW 225 1,3 C 19,4 km/h (3 Bft)
29.11.2015 17:45 4,9 C 4,3 C 78 % 1022,6 hPa 0,0 mm 13,2 km/h (3 Bft) W 270 1,4 C 20,2 km/h (4 Bft)
29.11.2015 17:50 4,9 C 4,4 C 78 % 1022,6 hPa 0,0 mm 11,7 km/h (2 Bft) W-SW 247 1,4 C 14,8 km/h (3 Bft)
29.11.2015 17:55 4,8 C 4,4 C 78 % 1022,3 hPa 0,0 mm 10,9 km/h (2 Bft) W 270 1,3 C 13,7 km/h (3 Bft)
29.11.2015 18:00 4,8 C 4,4 C 78 % 1022,3 hPa 0,0 mm 10,1 km/h (2 Bft) W 270 1,3 C 12,4 km/h (3 Bft)
29.11.2015 18:05 4,9 C 4,5 C 78 % 1022,3 hPa 0,0 mm 10,4 km/h (2 Bft) W-SW 247 1,4 C 9,8 km/h (2 Bft)
29.11.2015 18:10 4,8 C 4,4 C 78 % 1022,3 hPa 0,0 mm 10,1 km/h (2 Bft) W-NW 292 1,3 C 17,1 km/h (3 Bft)
29.11.2015 18:15 4,9 C 4,5 C 78 % 1022,3 hPa 0,0 mm 9,6 km/h (2 Bft) W-SW 247 1,4 C 10,6 km/h (2 Bft)
29.11.2015 18:20 5,2 C 4,8 C 77 % 1022,3 hPa 0,0 mm 14,0 km/h (3 Bft) W-SW 247 1,5 C 19,4 km/h (3 Bft)
29.11.2015 18:25 5,1 C 4,7 C 77 % 1022,3 hPa 0,0 mm 15,8 km/h (3 Bft) W 270 1,4 C 26,9 km/h (4 Bft)
29.11.2015 18:30 5,0 C 4,6 C 77 % 1022,3 hPa 0,0 mm 13,2 km/h (3 Bft) NW 315 1,3 C 18,4 km/h (3 Bft)
29.11.2015 18:35 5,1 C 4,5 C 77 % 1022,2 hPa 0,0 mm 12,7 km/h (3 Bft) N-NO 22 1,4 C 17,3 km/h (3 Bft)
29.11.2015 18:40 5,3 C 4,9 C 76 % 1022,2 hPa 0,0 mm 13,7 km/h (3 Bft) W-SW 247 1,4 C 20,7 km/h (4 Bft)
29.11.2015 18:45 5,3 C 4,6 C 76 % 1022,2 hPa 0,0 mm 14,8 km/h (3 Bft) W-SW 247 1,4 C 21,8 km/h (4 Bft)
29.11.2015 18:50 5,4 C 5,0 C 75 % 1022,2 hPa 0,0 mm 14,5 km/h (3 Bft) N-NW 337 1,3 C 10,9 km/h (2 Bft)
29.11.2015 18:55 5,5 C 5,1 C 74 % 1022,0 hPa 0,0 mm 14,0 km/h (3 Bft) W-SW 247 1,2 C 18,9 km/h (3 Bft)
29.11.2015 19:00 5,6 C 5,2 C 73 % 1022,0 hPa 0,0 mm 14,2 km/h (3 Bft) SW 225 1,2 C 26,9 km/h (4 Bft)
29.11.2015 19:05 5,8 C 5,1 C 72 % 1022,0 hPa 0,0 mm 14,8 km/h (3 Bft) W 270 1,2 C 16,8 km/h (3 Bft)
29.11.2015 19:10 5,8 C 5,4 C 71 % 1022,0 hPa 0,0 mm 14,8 km/h (3 Bft) S-SW 202 1,0 C 18,6 km/h (3 Bft)
29.11.2015 19:15 5,8 C 5,5 C 71 % 1022,0 hPa 0,0 mm 14,5 km/h (3 Bft) W-SW 247 1,0 C 14,0 km/h (3 Bft)
29.11.2015 19:20 6,0 C 5,6 C 70 % 1022,0 hPa 0,0 mm 15,3 km/h (3 Bft) W-NW 292 1,0 C 25,4 km/h (4 Bft)
29.11.2015 19:25 6,2 C 5,8 C 70 % 1022,0 hPa 0,0 mm 15,5 km/h (3 Bft) W 270 1,1 C 22,0 km/h (4 Bft)
29.11.2015 19:30 6,2 C 5,6 C 70 % 1022,0 hPa 0,0 mm 16,6 km/h (3 Bft) W 270 1,1 C 17,1 km/h (3 Bft)
29.11.2015 19:35 6,2 C 5,8 C 70 % 1022,4 hPa 0,0 mm 17,6 km/h (3 Bft) W-SW 247 1,1 C 31,8 km/h (5 Bft)
29.11.2015 19:40 6,4 C 5,9 C 69 % 1022,4 hPa 0,0 mm 18,6 km/h (3 Bft) W-SW 247 1,1 C 32,4 km/h (5 Bft)
29.11.2015 19:45 6,6 C 6,1 C 69 % 1022,4 hPa 0,0 mm 21,0 km/h (4 Bft) SW 225 1,3 C 26,9 km/h (4 Bft)
29.11.2015 19:50 6,6 C 6,0 C 68 % 1022,4 hPa 0,0 mm 21,8 km/h (4 Bft) W-SW 247 1,1 C 44,8 km/h (6 Bft)
29.11.2015 19:55 6,6 C 6,0 C 68 % 1022,6 hPa 0,0 mm 22,3 km/h (4 Bft) W 270 1,1 C 46,1 km/h (6 Bft)
29.11.2015 20:00 6,7 C 6,1 C 67 % 1022,6 hPa 0,0 mm 23,3 km/h (4 Bft) W-SW 247 1,0 C 51,0 km/h (7 Bft)
29.11.2015 20:05 6,6 C 6,1 C 67 % 1022,6 hPa 0,0 mm 24,3 km/h (4 Bft) W-NW 292 0,9 C 23,6 km/h (4 Bft)
29.11.2015 20:10 6,5 C 6,0 C 67 % 1022,6 hPa 0,0 mm 19,9 km/h (4 Bft) W-SW 247 0,8 C 21,2 km/h (4 Bft)
29.11.2015 20:15 6,4 C 6,0 C 67 % 1022,4 hPa 0,0 mm 18,4 km/h (3 Bft) S-SW 202 0,7 C 48,2 km/h (6 Bft)
29.11.2015 20:20 6,5 C 6,0 C 67 % 1022,4 hPa 0,0 mm 17,9 km/h (3 Bft) NW 315 0,8 C 21,5 km/h (4 Bft)
29.11.2015 20:25 6,4 C 5,9 C 67 % 1022,4 hPa 0,0 mm 18,6 km/h (3 Bft) S-SO 157 0,7 C 28,5 km/h (4 Bft)
29.11.2015 20:30 6,4 C 5,9 C 67 % 1022,4 hPa 0,0 mm 18,1 km/h (3 Bft) NW 315 0,7 C 16,6 km/h (3 Bft)
29.11.2015 20:35 6,4 C 5,9 C 67 % 1022,3 hPa 0,0 mm 17,3 km/h (3 Bft) W-SW 247 0,7 C 20,5 km/h (4 Bft)
29.11.2015 20:40 6,5 C 5,8 C 67 % 1022,3 hPa 0,0 mm 17,3 km/h (3 Bft) W-NW 292 0,8 C 28,5 km/h (4 Bft)
29.11.2015 20:45 6,7 C 6,1 C 66 % 1022,3 hPa 0,0 mm 19,2 km/h (3 Bft) W-SW 247 0,8 C 42,5 km/h (6 Bft)
29.11.2015 20:50 6,9 C 6,3 C 66 % 1022,3 hPa 0,0 mm 19,4 km/h (3 Bft) SW 225 1,0 C 21,2 km/h (4 Bft)
29.11.2015 20:55 6,7 C 6,2 C 65 % 1022,8 hPa 0,0 mm 18,6 km/h (3 Bft) W-NW 292 0,6 C 12,7 km/h (3 Bft)
29.11.2015 21:00 6,8 C 6,4 C 65 % 1022,8 hPa 0,0 mm 18,4 km/h (3 Bft) W 270 0,7 C 16,3 km/h (3 Bft)
29.11.2015 21:05 6,8 C 6,1 C 65 % 1022,8 hPa 0,0 mm 17,6 km/h (3 Bft) W-SW 247 0,7 C 24,1 km/h (4 Bft)
29.11.2015 21:10 6,8 C 6,1 C 65 % 1022,8 hPa 0,0 mm 17,9 km/h (3 Bft) W 270 0,7 C 33,9 km/h (5 Bft)
29.11.2015 21:15 6,7 C 6,3 C 65 % 1022,8 hPa 0,0 mm 18,4 km/h (3 Bft) W-SW 247 0,6 C 20,7 km/h (4 Bft)
29.11.2015 21:20 6,7 C 6,0 C 66 % 1022,8 hPa 0,0 mm 18,1 km/h (3 Bft) W 270 0,8 C 20,5 km/h (4 Bft)
29.11.2015 21:25 6,8 C 6,1 C 66 % 1022,8 hPa 0,0 mm 17,6 km/h (3 Bft) NW 315 0,9 C 13,2 km/h (3 Bft)
29.11.2015 21:30 6,7 C 6,0 C 66 % 1022,8 hPa 0,0 mm 17,3 km/h (3 Bft) W-SW 247 0,8 C 19,9 km/h (4 Bft)
29.11.2015 21:35 6,8 C 6,1 C 66 % 1022,7 hPa 0,0 mm 17,3 km/h (3 Bft) NW 315 0,9 C 30,6 km/h (5 Bft)
29.11.2015 21:40 7,0 C 6,4 C 65 % 1022,7 hPa 0,0 mm 21,2 km/h (4 Bft) W 270 0,9 C 34,2 km/h (5 Bft)
29.11.2015 21:45 7,0 C 6,5 C 65 % 1022,7 hPa 0,0 mm 21,5 km/h (4 Bft) W 270 0,9 C 17,1 km/h (3 Bft)
29.11.2015 21:50 6,9 C 6,4 C 65 % 1022,7 hPa 0,0 mm 18,6 km/h (3 Bft) W-NW 292 0,8 C 16,3 km/h (3 Bft)
29.11.2015 21:55 6,9 C 6,2 C 65 % 1022,8 hPa 0,0 mm 16,8 km/h (3 Bft) SW 225 0,8 C 13,7 km/h (3 Bft)
29.11.2015 22:00 7,0 C 6,6 C 64 % 1022,8 hPa 0,0 mm 17,6 km/h (3 Bft) W 270 0,7 C 26,9 km/h (4 Bft)
29.11.2015 22:05 6,9 C 6,3 C 64 % 1022,8 hPa 0,0 mm 16,6 km/h (3 Bft) W-SW 247 0,6 C 23,6 km/h (4 Bft)
29.11.2015 22:10 6,9 C 6,5 C 64 % 1022,8 hPa 0,0 mm 15,0 km/h (3 Bft) W-SW 247 0,6 C 12,7 km/h (3 Bft)
29.11.2015 22:15 7,0 C 6,6 C 63 % 1023,0 hPa 0,0 mm 16,3 km/h (3 Bft) SO 135 0,4 C 23,0 km/h (4 Bft)
29.11.2015 22:20 7,0 C 6,5 C 63 % 1023,0 hPa 0,0 mm 19,4 km/h (3 Bft) W-NW 292 0,4 C 66,3 km/h (8 Bft)
29.11.2015 22:25 7,0 C 6,4 C 63 % 1023,0 hPa 0,0 mm 23,0 km/h (4 Bft) W-SW 247 0,4 C 28,2 km/h (4 Bft)
29.11.2015 22:30 7,0 C 6,1 C 63 % 1023,0 hPa 0,0 mm 23,3 km/h (4 Bft) W-SW 247 0,4 C 40,1 km/h (6 Bft)
29.11.2015 22:35 6,9 C 6,4 C 63 % 1023,0 hPa 0,0 mm 21,0 km/h (4 Bft) W-SW 247 0,4 C 16,1 km/h (3 Bft)
29.11.2015 22:40 6,9 C 6,4 C 63 % 1023,0 hPa 0,0 mm 20,7 km/h (4 Bft) W 270 0,4 C 20,2 km/h (4 Bft)
29.11.2015 22:45 6,8 C 6,0 C 63 % 1023,0 hPa 0,0 mm 18,9 km/h (3 Bft) W-SW 247 0,3 C 15,5 km/h (3 Bft)
29.11.2015 22:50 6,7 C 6,2 C 62 % 1023,0 hPa 0,0 mm 17,9 km/h (3 Bft) W 270 -0,1 C 24,3 km/h (4 Bft)
29.11.2015 22:55 6,9 C 6,3 C 62 % 1022,6 hPa 0,0 mm 18,1 km/h (3 Bft) S 180 0,1 C 18,6 km/h (3 Bft)
29.11.2015 23:00 6,9 C 6,3 C 62 % 1022,6 hPa 0,0 mm 19,4 km/h (3 Bft) NW 315 0,1 C 33,9 km/h (5 Bft)
29.11.2015 23:05 6,9 C 6,3 C 62 % 1022,6 hPa 0,0 mm 17,6 km/h (3 Bft) W 270 0,1 C 22,0 km/h (4 Bft)
29.11.2015 23:10 7,0 C 6,5 C 62 % 1022,6 hPa 0,0 mm 17,6 km/h (3 Bft) W-SW 247 0,2 C 14,5 km/h (3 Bft)
29.11.2015 23:15 7,0 C 6,3 C 62 % 1022,7 hPa 0,0 mm 17,6 km/h (3 Bft) W 270 0,2 C 21,0 km/h (4 Bft)
29.11.2015 23:20 7,0 C 6,6 C 61 % 1022,7 hPa 0,0 mm 15,5 km/h (3 Bft) NW 315 0,0 C 21,8 km/h (4 Bft)
29.11.2015 23:25 7,2 C 6,7 C 61 % 1022,7 hPa 0,0 mm 17,1 km/h (3 Bft) W-SW 247 0,2 C 13,2 km/h (3 Bft)
29.11.2015 23:30 7,3 C 6,8 C 61 % 1022,7 hPa 0,0 mm 19,7 km/h (3 Bft) W-NW 292 0,3 C 31,6 km/h (5 Bft)
29.11.2015 23:35 7,3 C 6,5 C 60 % 1023,0 hPa 0,0 mm 19,7 km/h (3 Bft) W-NW 292 0,1 C 18,9 km/h (3 Bft)
29.11.2015 23:36 7,3 C 6,3 C 60 % 1023,0 hPa 0,0 mm 19,2 km/h (3 Bft) W-SW 247 0,1 C 16,1 km/h (3 Bft)
29.11.2015 23:40 7,3 C 6,6 C 60 % 1023,0 hPa 0,0 mm 19,2 km/h (3 Bft) W-SW 247 0,1 C 16,1 km/h (3 Bft)
29.11.2015 23:45 7,3 C 6,8 C 60 % 1023,0 hPa 0,0 mm 18,4 km/h (3 Bft) W 270 0,1 C 19,7 km/h (3 Bft)
29.11.2015 23:50 7,2 C 6,8 C 60 % 1023,0 hPa 0,0 mm 16,6 km/h (3 Bft) W 270 -0,0 C 25,6 km/h (4 Bft)
29.11.2015 23:55 7,2 C 6,8 C 60 % 1022,4 hPa 0,0 mm 17,3 km/h (3 Bft) W-SW 247 -0,0 C 21,8 km/h (4 Bft)
_ Min-Zeit 00:35 01:20 23:55 09:30 - 03:55 - - 06:25 03:50
Minimum _ -1,0 C -1,9 C 60 % 1020,6 hPa - 4,1 km/h (1 Bft) - - -7,2 C 0,0 km/h (0 Bft)
_ Max-Zeit 23:45 23:55 16:45 23:50 14:35 20:05 - - 18:20 22:20
Maximum _ 7,3 C 6,8 C 80 % 1023,0 hPa 0,7 mm 24,3 km/h
W-NW (4 Bft)
- - 1,5 C 66,3 km/h
W-NW (8 Bft)
Durchschnitt _ 3,2 C 2,7 C 70 % 1021,7 hPa #1,4 mm 11,5 km/h (2 Bft) W-SW - -1,9 C 15,3 km/h (3 Bft)